Location: Bakhuizen
(52.8696°N, 5.4575°E)
Time: 20:37:47
(UTC+00:00)

Cosmos 2278 Rocket - Pass Details

Date: 11 May 2021
Orbit: 841 x 845 km, 71.0° (Epoch: 21 June)

Event Time Altitude Azimuth Distance (km) Brightness Sun altitude
Rises 20:18:42 0° 178° (S) 3,385 4.9 -7.4°
Reaches altitude 10° 20:21:20 10° 169° (S) 2,455 4.1 -7.7°
Maximum altitude 20:26:19 33° 107° (ESE) 1,374 2.9 -8.2°
Drops below altitude 10° 20:31:19 10° 45° (NE) 2,470 4.7 -8.8°
Sets 20:33:58 0° 36° (NE) 3,409 5.5 -9.0°
